Index of /20260503/WXO-DD/model_caps/3km/12/028
Name Last modified Size Description
Parent Directory -
20260503T12Z_MSC_CAPS_AbsoluteVorticity_IsbL-0250_RLatLon0.03_PT028H.grib2 2026-05-03 18:16 904K
20260503T12Z_MSC_CAPS_AbsoluteVorticity_IsbL-0500_RLatLon0.03_PT028H.grib2 2026-05-03 18:16 1.1M
20260503T12Z_MSC_CAPS_AbsoluteVorticity_IsbL-0700_RLatLon0.03_PT028H.grib2 2026-05-03 18:16 1.1M
20260503T12Z_MSC_CAPS_AbsoluteVorticity_IsbL-0850_RLatLon0.03_PT028H.grib2 2026-05-03 18:16 1.2M
20260503T12Z_MSC_CAPS_AbsoluteVorticity_IsbL-1000_RLatLon0.03_PT028H.grib2 2026-05-03 18:16 1.4M
20260503T12Z_MSC_CAPS_AirDensity_AGL-120m_RLatLon0.03_PT028H.grib2 2026-05-03 18:16 1.4M
20260503T12Z_MSC_CAPS_AirDensity_AGL-40m_RLatLon0.03_PT028H.grib2 2026-05-03 18:16 1.4M
20260503T12Z_MSC_CAPS_AirDensity_AGL-80m_RLatLon0.03_PT028H.grib2 2026-05-03 18:16 1.4M
20260503T12Z_MSC_CAPS_AirTemp_AGL-120m_RLatLon0.03_PT028H.grib2 2026-05-03 18:16 1.4M
20260503T12Z_MSC_CAPS_AirTemp_AGL-2m_RLatLon0.03_PT028H.grib2 2026-05-03 18:16 1.7M
20260503T12Z_MSC_CAPS_AirTemp_AGL-40m_RLatLon0.03_PT028H.grib2 2026-05-03 18:16 1.5M
20260503T12Z_MSC_CAPS_AirTemp_AGL-80m_RLatLon0.03_PT028H.grib2 2026-05-03 18:16 1.5M
20260503T12Z_MSC_CAPS_AirTemp_IsbL-0050_RLatLon0.03_PT028H.grib2 2026-05-03 18:16 689K
20260503T12Z_MSC_CAPS_AirTemp_IsbL-0100_RLatLon0.03_PT028H.grib2 2026-05-03 18:16 961K
20260503T12Z_MSC_CAPS_AirTemp_IsbL-0150_RLatLon0.03_PT028H.grib2 2026-05-03 18:16 745K
20260503T12Z_MSC_CAPS_AirTemp_IsbL-0175_RLatLon0.03_PT028H.grib2 2026-05-03 18:16 766K
20260503T12Z_MSC_CAPS_AirTemp_IsbL-0200_RLatLon0.03_PT028H.grib2 2026-05-03 18:16 787K
20260503T12Z_MSC_CAPS_AirTemp_IsbL-0225_RLatLon0.03_PT028H.grib2 2026-05-03 18:16 794K
20260503T12Z_MSC_CAPS_AirTemp_IsbL-0250_RLatLon0.03_PT028H.grib2 2026-05-03 18:16 785K
20260503T12Z_MSC_CAPS_AirTemp_IsbL-0275_RLatLon0.03_PT028H.grib2 2026-05-03 18:16 776K
20260503T12Z_MSC_CAPS_AirTemp_IsbL-0300_RLatLon0.03_PT028H.grib2 2026-05-03 18:16 1.0M
20260503T12Z_MSC_CAPS_AirTemp_IsbL-0350_RLatLon0.03_PT028H.grib2 2026-05-03 18:16 745K
20260503T12Z_MSC_CAPS_AirTemp_IsbL-0400_RLatLon0.03_PT028H.grib2 2026-05-03 18:16 751K
20260503T12Z_MSC_CAPS_AirTemp_IsbL-0450_RLatLon0.03_PT028H.grib2 2026-05-03 18:16 769K
20260503T12Z_MSC_CAPS_AirTemp_IsbL-0500_RLatLon0.03_PT028H.grib2 2026-05-03 18:16 786K
20260503T12Z_MSC_CAPS_AirTemp_IsbL-0550_RLatLon0.03_PT028H.grib2 2026-05-03 18:16 799K
20260503T12Z_MSC_CAPS_AirTemp_IsbL-0600_RLatLon0.03_PT028H.grib2 2026-05-03 18:16 1.0M
20260503T12Z_MSC_CAPS_AirTemp_IsbL-0650_RLatLon0.03_PT028H.grib2 2026-05-03 18:16 1.0M
20260503T12Z_MSC_CAPS_AirTemp_IsbL-0700_RLatLon0.03_PT028H.grib2 2026-05-03 18:16 1.0M
20260503T12Z_MSC_CAPS_AirTemp_IsbL-0750_RLatLon0.03_PT028H.grib2 2026-05-03 18:16 1.0M
20260503T12Z_MSC_CAPS_AirTemp_IsbL-0800_RLatLon0.03_PT028H.grib2 2026-05-03 18:16 1.1M
20260503T12Z_MSC_CAPS_AirTemp_IsbL-0850_RLatLon0.03_PT028H.grib2 2026-05-03 18:16 1.1M
20260503T12Z_MSC_CAPS_AirTemp_IsbL-0875_RLatLon0.03_PT028H.grib2 2026-05-03 18:16 1.1M
20260503T12Z_MSC_CAPS_AirTemp_IsbL-0900_RLatLon0.03_PT028H.grib2 2026-05-03 18:16 1.1M
20260503T12Z_MSC_CAPS_AirTemp_IsbL-0925_RLatLon0.03_PT028H.grib2 2026-05-03 18:16 1.1M
20260503T12Z_MSC_CAPS_AirTemp_IsbL-0950_RLatLon0.03_PT028H.grib2 2026-05-03 18:16 1.1M
20260503T12Z_MSC_CAPS_AirTemp_IsbL-0970_RLatLon0.03_PT028H.grib2 2026-05-03 18:16 1.1M
20260503T12Z_MSC_CAPS_AirTemp_IsbL-0985_RLatLon0.03_PT028H.grib2 2026-05-03 18:16 1.1M
20260503T12Z_MSC_CAPS_AirTemp_IsbL-1000_RLatLon0.03_PT028H.grib2 2026-05-03 18:16 1.0M
20260503T12Z_MSC_CAPS_AirTemp_IsbL-1015_RLatLon0.03_PT028H.grib2 2026-05-03 18:16 1.0M
20260503T12Z_MSC_CAPS_Albedo_Sfc_RLatLon0.03_PT028H.grib2 2026-05-03 18:16 2.7M
20260503T12Z_MSC_CAPS_CAPE_Sfc_RLatLon0.03_PT028H.grib2 2026-05-03 18:16 184K
20260503T12Z_MSC_CAPS_CloudWater_EAtm_RLatLon0.03_PT028H.grib2 2026-05-03 18:16 1.5M
20260503T12Z_MSC_CAPS_ConvectivePrecip-Accum_Sfc_RLatLon0.03_PT028H.grib2 2026-05-03 18:16 4.4M
20260503T12Z_MSC_CAPS_DewPointDepression_AGL-120m_RLatLon0.03_PT028H.grib2 2026-05-03 18:16 2.1M
20260503T12Z_MSC_CAPS_DewPointDepression_AGL-2m_RLatLon0.03_PT028H.grib2 2026-05-03 18:16 2.2M
20260503T12Z_MSC_CAPS_DewPointDepression_AGL-40m_RLatLon0.03_PT028H.grib2 2026-05-03 18:16 2.1M
20260503T12Z_MSC_CAPS_DewPointDepression_AGL-80m_RLatLon0.03_PT028H.grib2 2026-05-03 18:16 2.1M
20260503T12Z_MSC_CAPS_DewPointDepression_IsbL-0050_RLatLon0.03_PT028H.grib2 2026-05-03 18:16 4.6K
20260503T12Z_MSC_CAPS_DewPointDepression_IsbL-0100_RLatLon0.03_PT028H.grib2 2026-05-03 18:16 87K
20260503T12Z_MSC_CAPS_DewPointDepression_IsbL-0150_RLatLon0.03_PT028H.grib2 2026-05-03 18:16 89K
20260503T12Z_MSC_CAPS_DewPointDepression_IsbL-0175_RLatLon0.03_PT028H.grib2 2026-05-03 18:16 212K
20260503T12Z_MSC_CAPS_DewPointDepression_IsbL-0200_RLatLon0.03_PT028H.grib2 2026-05-03 18:16 394K
20260503T12Z_MSC_CAPS_DewPointDepression_IsbL-0225_RLatLon0.03_PT028H.grib2 2026-05-03 18:16 665K
20260503T12Z_MSC_CAPS_DewPointDepression_IsbL-0250_RLatLon0.03_PT028H.grib2 2026-05-03 18:16 853K
20260503T12Z_MSC_CAPS_DewPointDepression_IsbL-0275_RLatLon0.03_PT028H.grib2 2026-05-03 18:16 1.0M
20260503T12Z_MSC_CAPS_DewPointDepression_IsbL-0300_RLatLon0.03_PT028H.grib2 2026-05-03 18:16 1.0M
20260503T12Z_MSC_CAPS_DewPointDepression_IsbL-0350_RLatLon0.03_PT028H.grib2 2026-05-03 18:16 1.1M
20260503T12Z_MSC_CAPS_DewPointDepression_IsbL-0400_RLatLon0.03_PT028H.grib2 2026-05-03 18:16 1.1M
20260503T12Z_MSC_CAPS_DewPointDepression_IsbL-0450_RLatLon0.03_PT028H.grib2 2026-05-03 18:16 1.1M
20260503T12Z_MSC_CAPS_DewPointDepression_IsbL-0500_RLatLon0.03_PT028H.grib2 2026-05-03 18:16 1.2M
20260503T12Z_MSC_CAPS_DewPointDepression_IsbL-0550_RLatLon0.03_PT028H.grib2 2026-05-03 18:16 1.2M
20260503T12Z_MSC_CAPS_DewPointDepression_IsbL-0600_RLatLon0.03_PT028H.grib2 2026-05-03 18:16 1.3M
20260503T12Z_MSC_CAPS_DewPointDepression_IsbL-0650_RLatLon0.03_PT028H.grib2 2026-05-03 18:16 1.3M
20260503T12Z_MSC_CAPS_DewPointDepression_IsbL-0700_RLatLon0.03_PT028H.grib2 2026-05-03 18:16 1.3M
20260503T12Z_MSC_CAPS_DewPointDepression_IsbL-0750_RLatLon0.03_PT028H.grib2 2026-05-03 18:16 1.3M
20260503T12Z_MSC_CAPS_DewPointDepression_IsbL-0800_RLatLon0.03_PT028H.grib2 2026-05-03 18:16 1.3M
20260503T12Z_MSC_CAPS_DewPointDepression_IsbL-0850_RLatLon0.03_PT028H.grib2 2026-05-03 18:16 1.4M
20260503T12Z_MSC_CAPS_DewPointDepression_IsbL-0875_RLatLon0.03_PT028H.grib2 2026-05-03 18:16 1.4M
20260503T12Z_MSC_CAPS_DewPointDepression_IsbL-0900_RLatLon0.03_PT028H.grib2 2026-05-03 18:16 1.4M
20260503T12Z_MSC_CAPS_DewPointDepression_IsbL-0925_RLatLon0.03_PT028H.grib2 2026-05-03 18:16 1.4M
20260503T12Z_MSC_CAPS_DewPointDepression_IsbL-0950_RLatLon0.03_PT028H.grib2 2026-05-03 18:16 1.4M
20260503T12Z_MSC_CAPS_DewPointDepression_IsbL-0970_RLatLon0.03_PT028H.grib2 2026-05-03 18:16 1.4M
20260503T12Z_MSC_CAPS_DewPointDepression_IsbL-0985_RLatLon0.03_PT028H.grib2 2026-05-03 18:16 1.4M
20260503T12Z_MSC_CAPS_DewPointDepression_IsbL-1000_RLatLon0.03_PT028H.grib2 2026-05-03 18:16 1.3M
20260503T12Z_MSC_CAPS_DewPointDepression_IsbL-1015_RLatLon0.03_PT028H.grib2 2026-05-03 18:16 1.3M
20260503T12Z_MSC_CAPS_DewPoint_AGL-120m_RLatLon0.03_PT028H.grib2 2026-05-03 18:16 3.7M
20260503T12Z_MSC_CAPS_DewPoint_AGL-2m_RLatLon0.03_PT028H.grib2 2026-05-03 18:16 2.2M
20260503T12Z_MSC_CAPS_DewPoint_AGL-40m_RLatLon0.03_PT028H.grib2 2026-05-03 18:16 3.7M
20260503T12Z_MSC_CAPS_DewPoint_AGL-80m_RLatLon0.03_PT028H.grib2 2026-05-03 18:16 3.7M
20260503T12Z_MSC_CAPS_DownwardLongwaveRadiationFlux-Accum_Sfc_RLatLon0.03_PT028H.grib2 2026-05-03 18:16 2.4M
20260503T12Z_MSC_CAPS_DownwardShortwaveRadiationFlux-Accum_NTAtm_RLatLon0.03_PT028H.grib2 2026-05-03 18:16 451K
20260503T12Z_MSC_CAPS_DownwardShortwaveRadiationFlux-Accum_Sfc_RLatLon0.03_PT028H.grib2 2026-05-03 18:16 2.8M
20260503T12Z_MSC_CAPS_FreezingRain-Accum_Sfc_RLatLon0.03_PT028H.grib2 2026-05-03 18:16 694K
20260503T12Z_MSC_CAPS_GeopotentialHeight_IsbL-0050_RLatLon0.03_PT028H.grib2 2026-05-03 18:16 642K
20260503T12Z_MSC_CAPS_GeopotentialHeight_IsbL-0100_RLatLon0.03_PT028H.grib2 2026-05-03 18:16 766K
20260503T12Z_MSC_CAPS_GeopotentialHeight_IsbL-0150_RLatLon0.03_PT028H.grib2 2026-05-03 18:16 615K
20260503T12Z_MSC_CAPS_GeopotentialHeight_IsbL-0175_RLatLon0.03_PT028H.grib2 2026-05-03 18:16 733K
20260503T12Z_MSC_CAPS_GeopotentialHeight_IsbL-0200_RLatLon0.03_PT028H.grib2 2026-05-03 18:16 746K
20260503T12Z_MSC_CAPS_GeopotentialHeight_IsbL-0225_RLatLon0.03_PT028H.grib2 2026-05-03 18:16 757K
20260503T12Z_MSC_CAPS_GeopotentialHeight_IsbL-0250_RLatLon0.03_PT028H.grib2 2026-05-03 18:16 768K
20260503T12Z_MSC_CAPS_GeopotentialHeight_IsbL-0275_RLatLon0.03_PT028H.grib2 2026-05-03 18:16 778K
20260503T12Z_MSC_CAPS_GeopotentialHeight_IsbL-0300_RLatLon0.03_PT028H.grib2 2026-05-03 18:16 783K
20260503T12Z_MSC_CAPS_GeopotentialHeight_IsbL-0350_RLatLon0.03_PT028H.grib2 2026-05-03 18:16 784K
20260503T12Z_MSC_CAPS_GeopotentialHeight_IsbL-0400_RLatLon0.03_PT028H.grib2 2026-05-03 18:16 782K
20260503T12Z_MSC_CAPS_GeopotentialHeight_IsbL-0450_RLatLon0.03_PT028H.grib2 2026-05-03 18:16 773K
20260503T12Z_MSC_CAPS_GeopotentialHeight_IsbL-0500_RLatLon0.03_PT028H.grib2 2026-05-03 18:16 765K
20260503T12Z_MSC_CAPS_GeopotentialHeight_IsbL-0550_RLatLon0.03_PT028H.grib2 2026-05-03 18:16 642K
20260503T12Z_MSC_CAPS_GeopotentialHeight_IsbL-0600_RLatLon0.03_PT028H.grib2 2026-05-03 18:16 638K
20260503T12Z_MSC_CAPS_GeopotentialHeight_IsbL-0650_RLatLon0.03_PT028H.grib2 2026-05-03 18:16 811K
20260503T12Z_MSC_CAPS_GeopotentialHeight_IsbL-0700_RLatLon0.03_PT028H.grib2 2026-05-03 18:16 810K
20260503T12Z_MSC_CAPS_GeopotentialHeight_IsbL-0750_RLatLon0.03_PT028H.grib2 2026-05-03 18:16 887K
20260503T12Z_MSC_CAPS_GeopotentialHeight_IsbL-0800_RLatLon0.03_PT028H.grib2 2026-05-03 18:16 893K
20260503T12Z_MSC_CAPS_GeopotentialHeight_IsbL-0850_RLatLon0.03_PT028H.grib2 2026-05-03 18:16 905K
20260503T12Z_MSC_CAPS_GeopotentialHeight_IsbL-0875_RLatLon0.03_PT028H.grib2 2026-05-03 18:16 913K
20260503T12Z_MSC_CAPS_GeopotentialHeight_IsbL-0900_RLatLon0.03_PT028H.grib2 2026-05-03 18:16 839K
20260503T12Z_MSC_CAPS_GeopotentialHeight_IsbL-0925_RLatLon0.03_PT028H.grib2 2026-05-03 18:16 837K
20260503T12Z_MSC_CAPS_GeopotentialHeight_IsbL-0950_RLatLon0.03_PT028H.grib2 2026-05-03 18:16 864K
20260503T12Z_MSC_CAPS_GeopotentialHeight_IsbL-0970_RLatLon0.03_PT028H.grib2 2026-05-03 18:16 872K
20260503T12Z_MSC_CAPS_GeopotentialHeight_IsbL-0985_RLatLon0.03_PT028H.grib2 2026-05-03 18:16 883K
20260503T12Z_MSC_CAPS_GeopotentialHeight_IsbL-1000_RLatLon0.03_PT028H.grib2 2026-05-03 18:16 890K
20260503T12Z_MSC_CAPS_GeopotentialHeight_IsbL-1015_RLatLon0.03_PT028H.grib2 2026-05-03 18:16 901K
20260503T12Z_MSC_CAPS_GeopotentialHeight_Sfc_RLatLon0.03_PT028H.grib2 2026-05-03 18:16 1.0M
20260503T12Z_MSC_CAPS_IcePellets-Accum_Sfc_RLatLon0.03_PT028H.grib2 2026-05-03 18:16 33K
20260503T12Z_MSC_CAPS_LatentHeatNetFlux_Sfc_RLatLon0.03_PT028H.grib2 2026-05-03 18:16 1.6M
20260503T12Z_MSC_CAPS_LiftedIndex-MU-VT_IsbL-0500_RLatLon0.03_PT028H.grib2 2026-05-03 18:16 3.4M
20260503T12Z_MSC_CAPS_MixedLayerThickness_Sfc_RLatLon0.03_PT028H.nc 2026-05-03 18:13 16M
20260503T12Z_MSC_CAPS_NetLongwaveRadiationFlux-Accum_Sfc_RLatLon0.03_PT028H.grib2 2026-05-03 18:16 3.1M
20260503T12Z_MSC_CAPS_NetShortwaveRadiationFlux-Accum_Sfc_RLatLon0.03_PT028H.grib2 2026-05-03 18:16 2.8M
20260503T12Z_MSC_CAPS_PlanetaryBoundaryLayerHeight_Sfc_RLatLon0.03_PT028H.grib2 2026-05-03 18:16 2.9M
20260503T12Z_MSC_CAPS_Precip-Accum_Sfc_RLatLon0.03_PT028H.grib2 2026-05-03 18:16 5.0M
20260503T12Z_MSC_CAPS_PrecipRate_Sfc_RLatLon0.03_PT028H.grib2 2026-05-03 18:16 478K
20260503T12Z_MSC_CAPS_PrecipType-Instant_Sfc_RLatLon0.03_PT028H.grib2 2026-05-03 18:16 1.9M
20260503T12Z_MSC_CAPS_Pressure_MSL_RLatLon0.03_PT028H.grib2 2026-05-03 18:16 776K
20260503T12Z_MSC_CAPS_Pressure_Sfc_RLatLon0.03_PT028H.grib2 2026-05-03 18:16 1.2M
20260503T12Z_MSC_CAPS_RadiativeTemp_Sfc_RLatLon0.03_PT028H.grib2 2026-05-03 18:16 2.1M
20260503T12Z_MSC_CAPS_Rain-Accum_Sfc_RLatLon0.03_PT028H.grib2 2026-05-03 18:16 2.5M
20260503T12Z_MSC_CAPS_RelativeHumidity_AGL-120m_RLatLon0.03_PT028H.grib2 2026-05-03 18:16 2.8M
20260503T12Z_MSC_CAPS_RelativeHumidity_AGL-2m_RLatLon0.03_PT028H.grib2 2026-05-03 18:16 2.9M
20260503T12Z_MSC_CAPS_RelativeHumidity_AGL-40m_RLatLon0.03_PT028H.grib2 2026-05-03 18:16 2.9M
20260503T12Z_MSC_CAPS_RelativeHumidity_AGL-80m_RLatLon0.03_PT028H.grib2 2026-05-03 18:16 2.9M
20260503T12Z_MSC_CAPS_RelativeHumidity_IsbL-0050_RLatLon0.03_PT028H.grib2 2026-05-03 18:16 1.0M
20260503T12Z_MSC_CAPS_RelativeHumidity_IsbL-0100_RLatLon0.03_PT028H.grib2 2026-05-03 18:16 882K
20260503T12Z_MSC_CAPS_RelativeHumidity_IsbL-0150_RLatLon0.03_PT028H.grib2 2026-05-03 18:16 613K
20260503T12Z_MSC_CAPS_RelativeHumidity_IsbL-0175_RLatLon0.03_PT028H.grib2 2026-05-03 18:16 491K
20260503T12Z_MSC_CAPS_RelativeHumidity_IsbL-0200_RLatLon0.03_PT028H.grib2 2026-05-03 18:16 659K
20260503T12Z_MSC_CAPS_RelativeHumidity_IsbL-0225_RLatLon0.03_PT028H.grib2 2026-05-03 18:16 888K
20260503T12Z_MSC_CAPS_RelativeHumidity_IsbL-0250_RLatLon0.03_PT028H.grib2 2026-05-03 18:16 1.1M
20260503T12Z_MSC_CAPS_RelativeHumidity_IsbL-0275_RLatLon0.03_PT028H.grib2 2026-05-03 18:16 1.4M
20260503T12Z_MSC_CAPS_RelativeHumidity_IsbL-0300_RLatLon0.03_PT028H.grib2 2026-05-03 18:16 1.7M
20260503T12Z_MSC_CAPS_RelativeHumidity_IsbL-0350_RLatLon0.03_PT028H.grib2 2026-05-03 18:16 1.9M
20260503T12Z_MSC_CAPS_RelativeHumidity_IsbL-0400_RLatLon0.03_PT028H.grib2 2026-05-03 18:16 2.1M
20260503T12Z_MSC_CAPS_RelativeHumidity_IsbL-0450_RLatLon0.03_PT028H.grib2 2026-05-03 18:16 2.0M
20260503T12Z_MSC_CAPS_RelativeHumidity_IsbL-0500_RLatLon0.03_PT028H.grib2 2026-05-03 18:16 2.2M
20260503T12Z_MSC_CAPS_RelativeHumidity_IsbL-0550_RLatLon0.03_PT028H.grib2 2026-05-03 18:16 2.2M
20260503T12Z_MSC_CAPS_RelativeHumidity_IsbL-0600_RLatLon0.03_PT028H.grib2 2026-05-03 18:16 2.3M
20260503T12Z_MSC_CAPS_RelativeHumidity_IsbL-0650_RLatLon0.03_PT028H.grib2 2026-05-03 18:16 2.3M
20260503T12Z_MSC_CAPS_RelativeHumidity_IsbL-0700_RLatLon0.03_PT028H.grib2 2026-05-03 18:16 2.3M
20260503T12Z_MSC_CAPS_RelativeHumidity_IsbL-0750_RLatLon0.03_PT028H.grib2 2026-05-03 18:16 2.4M
20260503T12Z_MSC_CAPS_RelativeHumidity_IsbL-0800_RLatLon0.03_PT028H.grib2 2026-05-03 18:16 2.4M
20260503T12Z_MSC_CAPS_RelativeHumidity_IsbL-0850_RLatLon0.03_PT028H.grib2 2026-05-03 18:16 2.6M
20260503T12Z_MSC_CAPS_RelativeHumidity_IsbL-0875_RLatLon0.03_PT028H.grib2 2026-05-03 18:16 2.6M
20260503T12Z_MSC_CAPS_RelativeHumidity_IsbL-0900_RLatLon0.03_PT028H.grib2 2026-05-03 18:16 2.6M
20260503T12Z_MSC_CAPS_RelativeHumidity_IsbL-0925_RLatLon0.03_PT028H.grib2 2026-05-03 18:16 2.7M
20260503T12Z_MSC_CAPS_RelativeHumidity_IsbL-0950_RLatLon0.03_PT028H.grib2 2026-05-03 18:16 2.7M
20260503T12Z_MSC_CAPS_RelativeHumidity_IsbL-0970_RLatLon0.03_PT028H.grib2 2026-05-03 18:16 2.8M
20260503T12Z_MSC_CAPS_RelativeHumidity_IsbL-0985_RLatLon0.03_PT028H.grib2 2026-05-03 18:16 2.8M
20260503T12Z_MSC_CAPS_RelativeHumidity_IsbL-1000_RLatLon0.03_PT028H.grib2 2026-05-03 18:16 2.9M
20260503T12Z_MSC_CAPS_RelativeHumidity_IsbL-1015_RLatLon0.03_PT028H.grib2 2026-05-03 18:16 2.9M
20260503T12Z_MSC_CAPS_Runoff-Accum_Sfc_RLatLon0.03_PT028H.grib2 2026-05-03 18:16 272K
20260503T12Z_MSC_CAPS_SeaIceAreaFraction_Sfc_RLatLon0.03_PT028H.nc 2026-05-03 18:13 15M
20260503T12Z_MSC_CAPS_SeaIceCompressiveStrength_Sfc_RLatLon0.03_PT028H.nc 2026-05-03 18:13 15M
20260503T12Z_MSC_CAPS_SeaIceDivergence_Sfc_RLatLon0.03_PT028H.nc 2026-05-03 18:13 15M
20260503T12Z_MSC_CAPS_SeaIceInternalPressure_Sfc_RLatLon0.03_PT028H.nc 2026-05-03 18:13 15M
20260503T12Z_MSC_CAPS_SeaIceShear_Sfc_RLatLon0.03_PT028H.nc 2026-05-03 18:13 15M
20260503T12Z_MSC_CAPS_SeaIceSnowTemp_Sfc_RLatLon0.03_PT028H.nc 2026-05-03 18:13 14M
20260503T12Z_MSC_CAPS_SeaIceSnowVolume_Sfc_RLatLon0.03_PT028H.nc 2026-05-03 18:13 15M
20260503T12Z_MSC_CAPS_SeaIceVelocityX_Sfc_RLatLon0.03_PT028H.nc 2026-05-03 18:13 15M
20260503T12Z_MSC_CAPS_SeaIceVelocityY_Sfc_RLatLon0.03_PT028H.nc 2026-05-03 18:13 15M
20260503T12Z_MSC_CAPS_SeaIceVolume_Sfc_RLatLon0.03_PT028H.nc 2026-05-03 18:13 15M
20260503T12Z_MSC_CAPS_SeaSurfaceHeight_Sfc_RLatLon0.03_PT028H.nc 2026-05-03 18:13 16M
20260503T12Z_MSC_CAPS_SeaWaterSalinity_DBS-0.5m_RLatLon0.03_PT028H.nc 2026-05-03 18:13 16M
20260503T12Z_MSC_CAPS_SeaWaterSalinity_DBS-all_RLatLon0.03_PT028H.nc 2026-05-03 18:13 107M
20260503T12Z_MSC_CAPS_SeaWaterTemp_DBS-0.5m_RLatLon0.03_PT028H.nc 2026-05-03 18:13 14M
20260503T12Z_MSC_CAPS_SeaWaterTemp_DBS-all_RLatLon0.03_PT028H.nc 2026-05-03 18:13 88M
20260503T12Z_MSC_CAPS_SeaWaterVelocityX_DBS-0.5m_RLatLon0.03_PT028H.nc 2026-05-03 18:13 17M
20260503T12Z_MSC_CAPS_SeaWaterVelocityX_DBS-all_RLatLon0.03_PT028H.nc 2026-05-03 18:13 211M
20260503T12Z_MSC_CAPS_SeaWaterVelocityY_DBS-0.5m_RLatLon0.03_PT028H.nc 2026-05-03 18:13 17M
20260503T12Z_MSC_CAPS_SeaWaterVelocityY_DBS-all_RLatLon0.03_PT028H.nc 2026-05-03 18:13 212M
20260503T12Z_MSC_CAPS_SensibleHeatNetFlux_Sfc_RLatLon0.03_PT028H.grib2 2026-05-03 18:16 2.2M
20260503T12Z_MSC_CAPS_ShowalterIndex_IsbL-0500_RLatLon0.03_PT028H.grib2 2026-05-03 18:16 4.3M
20260503T12Z_MSC_CAPS_Snow-Accum_Sfc_RLatLon0.03_PT028H.grib2 2026-05-03 18:16 3.8M
20260503T12Z_MSC_CAPS_SnowDensity_Sfc_RLatLon0.03_PT028H.grib2 2026-05-03 18:16 1.3M
20260503T12Z_MSC_CAPS_SnowDepthWaterEquivalent_Sfc_RLatLon0.03_PT028H.grib2 2026-05-03 18:16 662K
20260503T12Z_MSC_CAPS_SnowDepth_Sfc_RLatLon0.03_PT028H.grib2 2026-05-03 18:16 1.1M
20260503T12Z_MSC_CAPS_SoilTemp_DBS-0to10cm_RLatLon0.03_PT028H.grib2 2026-05-03 18:16 1.6M
20260503T12Z_MSC_CAPS_SoilTemp_Sfc_RLatLon0.03_PT028H.grib2 2026-05-03 18:16 1.9M
20260503T12Z_MSC_CAPS_SoilVolumetricIceContent_Sfc_RLatLon0.03_PT028H.grib2 2026-05-03 18:16 1.4M
20260503T12Z_MSC_CAPS_SoilVolumetricWaterContent_DBS-0to10cm_RLatLon0.03_PT028H.grib2 2026-05-03 18:16 1.3M
20260503T12Z_MSC_CAPS_SoilVolumetricWaterContent_DBS-0to1cm_RLatLon0.03_PT028H.grib2 2026-05-03 18:16 1.7M
20260503T12Z_MSC_CAPS_SpecificHumidity_AGL-120m_RLatLon0.03_PT028H.grib2 2026-05-03 18:16 1.4M
20260503T12Z_MSC_CAPS_SpecificHumidity_AGL-2m_RLatLon0.03_PT028H.grib2 2026-05-03 18:16 1.7M
20260503T12Z_MSC_CAPS_SpecificHumidity_AGL-40m_RLatLon0.03_PT028H.grib2 2026-05-03 18:16 1.5M
20260503T12Z_MSC_CAPS_SpecificHumidity_AGL-80m_RLatLon0.03_PT028H.grib2 2026-05-03 18:16 1.5M
20260503T12Z_MSC_CAPS_SpecificHumidity_IsbL-0050_RLatLon0.03_PT028H.grib2 2026-05-03 18:16 908K
20260503T12Z_MSC_CAPS_SpecificHumidity_IsbL-0100_RLatLon0.03_PT028H.grib2 2026-05-03 18:16 1.0M
20260503T12Z_MSC_CAPS_SpecificHumidity_IsbL-0150_RLatLon0.03_PT028H.grib2 2026-05-03 18:16 1.0M
20260503T12Z_MSC_CAPS_SpecificHumidity_IsbL-0175_RLatLon0.03_PT028H.grib2 2026-05-03 18:16 1.0M
20260503T12Z_MSC_CAPS_SpecificHumidity_IsbL-0200_RLatLon0.03_PT028H.grib2 2026-05-03 18:16 898K
20260503T12Z_MSC_CAPS_SpecificHumidity_IsbL-0225_RLatLon0.03_PT028H.grib2 2026-05-03 18:16 866K
20260503T12Z_MSC_CAPS_SpecificHumidity_IsbL-0250_RLatLon0.03_PT028H.grib2 2026-05-03 18:16 1.1M
20260503T12Z_MSC_CAPS_SpecificHumidity_IsbL-0275_RLatLon0.03_PT028H.grib2 2026-05-03 18:16 1.1M
20260503T12Z_MSC_CAPS_SpecificHumidity_IsbL-0300_RLatLon0.03_PT028H.grib2 2026-05-03 18:16 1.1M
20260503T12Z_MSC_CAPS_SpecificHumidity_IsbL-0350_RLatLon0.03_PT028H.grib2 2026-05-03 18:16 966K
20260503T12Z_MSC_CAPS_SpecificHumidity_IsbL-0400_RLatLon0.03_PT028H.grib2 2026-05-03 18:16 963K
20260503T12Z_MSC_CAPS_SpecificHumidity_IsbL-0450_RLatLon0.03_PT028H.grib2 2026-05-03 18:16 1.1M
20260503T12Z_MSC_CAPS_SpecificHumidity_IsbL-0500_RLatLon0.03_PT028H.grib2 2026-05-03 18:16 1.1M
20260503T12Z_MSC_CAPS_SpecificHumidity_IsbL-0550_RLatLon0.03_PT028H.grib2 2026-05-03 18:16 1.3M
20260503T12Z_MSC_CAPS_SpecificHumidity_IsbL-0600_RLatLon0.03_PT028H.grib2 2026-05-03 18:16 1.5M
20260503T12Z_MSC_CAPS_SpecificHumidity_IsbL-0650_RLatLon0.03_PT028H.grib2 2026-05-03 18:16 1.5M
20260503T12Z_MSC_CAPS_SpecificHumidity_IsbL-0700_RLatLon0.03_PT028H.grib2 2026-05-03 18:16 1.3M
20260503T12Z_MSC_CAPS_SpecificHumidity_IsbL-0750_RLatLon0.03_PT028H.grib2 2026-05-03 18:16 1.4M
20260503T12Z_MSC_CAPS_SpecificHumidity_IsbL-0800_RLatLon0.03_PT028H.grib2 2026-05-03 18:16 1.5M
20260503T12Z_MSC_CAPS_SpecificHumidity_IsbL-0850_RLatLon0.03_PT028H.grib2 2026-05-03 18:16 1.7M
20260503T12Z_MSC_CAPS_SpecificHumidity_IsbL-0875_RLatLon0.03_PT028H.grib2 2026-05-03 18:16 1.8M
20260503T12Z_MSC_CAPS_SpecificHumidity_IsbL-0900_RLatLon0.03_PT028H.grib2 2026-05-03 18:16 1.9M
20260503T12Z_MSC_CAPS_SpecificHumidity_IsbL-0925_RLatLon0.03_PT028H.grib2 2026-05-03 18:16 1.9M
20260503T12Z_MSC_CAPS_SpecificHumidity_IsbL-0950_RLatLon0.03_PT028H.grib2 2026-05-03 18:16 1.6M
20260503T12Z_MSC_CAPS_SpecificHumidity_IsbL-0970_RLatLon0.03_PT028H.grib2 2026-05-03 18:16 1.6M
20260503T12Z_MSC_CAPS_SpecificHumidity_IsbL-0985_RLatLon0.03_PT028H.grib2 2026-05-03 18:16 1.7M
20260503T12Z_MSC_CAPS_SpecificHumidity_IsbL-1000_RLatLon0.03_PT028H.grib2 2026-05-03 18:16 1.7M
20260503T12Z_MSC_CAPS_SpecificHumidity_IsbL-1015_RLatLon0.03_PT028H.grib2 2026-05-03 18:16 1.7M
20260503T12Z_MSC_CAPS_SpecificHumidity_Sfc_RLatLon0.03_PT028H.grib2 2026-05-03 18:16 2.1M
20260503T12Z_MSC_CAPS_StormRelativeHelicity_Sfc_RLatLon0.03_PT028H.grib2 2026-05-03 18:16 3.3M
20260503T12Z_MSC_CAPS_Thickness_IsbL-1000to0500_RLatLon0.03_PT028H.grib2 2026-05-03 18:16 461K
20260503T12Z_MSC_CAPS_TotalCloudCover_Sfc_RLatLon0.03_PT028H.grib2 2026-05-03 18:16 3.5M
20260503T12Z_MSC_CAPS_TurboclineDepth_Sfc_RLatLon0.03_PT028H.nc 2026-05-03 18:13 16M
20260503T12Z_MSC_CAPS_UpwardLongwaveRadiationFlux_NTAtm_RLatLon0.03_PT028H.grib2 2026-05-03 18:16 2.9M
20260503T12Z_MSC_CAPS_UpwardShortwaveRadiationFlux_NTAtm_RLatLon0.03_PT028H.grib2 2026-05-03 18:16 2.6M
20260503T12Z_MSC_CAPS_VerticalVelocity_IsbL-0250_RLatLon0.03_PT028H.grib2 2026-05-03 18:16 1.2M
20260503T12Z_MSC_CAPS_VerticalVelocity_IsbL-0500_RLatLon0.03_PT028H.grib2 2026-05-03 18:16 1.2M
20260503T12Z_MSC_CAPS_VerticalVelocity_IsbL-0700_RLatLon0.03_PT028H.grib2 2026-05-03 18:16 957K
20260503T12Z_MSC_CAPS_VerticalVelocity_IsbL-0850_RLatLon0.03_PT028H.grib2 2026-05-03 18:16 1.1M
20260503T12Z_MSC_CAPS_VerticalVelocity_IsbL-1000_RLatLon0.03_PT028H.grib2 2026-05-03 18:16 1.3M
20260503T12Z_MSC_CAPS_WindDir_AGL-10m_RLatLon0.03_PT028H.grib2 2026-05-03 18:16 2.4M
20260503T12Z_MSC_CAPS_WindDir_AGL-120m_RLatLon0.03_PT028H.grib2 2026-05-03 18:16 1.3M
20260503T12Z_MSC_CAPS_WindDir_AGL-40m_RLatLon0.03_PT028H.grib2 2026-05-03 18:16 1.4M
20260503T12Z_MSC_CAPS_WindDir_AGL-80m_RLatLon0.03_PT028H.grib2 2026-05-03 18:16 1.3M
20260503T12Z_MSC_CAPS_WindDir_IsbL-0050_RLatLon0.03_PT028H.grib2 2026-05-03 18:16 1.0M
20260503T12Z_MSC_CAPS_WindDir_IsbL-0100_RLatLon0.03_PT028H.grib2 2026-05-03 18:16 1.0M
20260503T12Z_MSC_CAPS_WindDir_IsbL-0150_RLatLon0.03_PT028H.grib2 2026-05-03 18:16 1.0M
20260503T12Z_MSC_CAPS_WindDir_IsbL-0175_RLatLon0.03_PT028H.grib2 2026-05-03 18:16 1.1M
20260503T12Z_MSC_CAPS_WindDir_IsbL-0200_RLatLon0.03_PT028H.grib2 2026-05-03 18:16 1.1M
20260503T12Z_MSC_CAPS_WindDir_IsbL-0225_RLatLon0.03_PT028H.grib2 2026-05-03 18:16 1.1M
20260503T12Z_MSC_CAPS_WindDir_IsbL-0250_RLatLon0.03_PT028H.grib2 2026-05-03 18:16 1.1M
20260503T12Z_MSC_CAPS_WindDir_IsbL-0275_RLatLon0.03_PT028H.grib2 2026-05-03 18:16 1.1M
20260503T12Z_MSC_CAPS_WindDir_IsbL-0300_RLatLon0.03_PT028H.grib2 2026-05-03 18:16 1.1M
20260503T12Z_MSC_CAPS_WindDir_IsbL-0350_RLatLon0.03_PT028H.grib2 2026-05-03 18:16 1.1M
20260503T12Z_MSC_CAPS_WindDir_IsbL-0400_RLatLon0.03_PT028H.grib2 2026-05-03 18:16 1.1M
20260503T12Z_MSC_CAPS_WindDir_IsbL-0450_RLatLon0.03_PT028H.grib2 2026-05-03 18:16 1.2M
20260503T12Z_MSC_CAPS_WindDir_IsbL-0500_RLatLon0.03_PT028H.grib2 2026-05-03 18:16 1.2M
20260503T12Z_MSC_CAPS_WindDir_IsbL-0550_RLatLon0.03_PT028H.grib2 2026-05-03 18:16 1.2M
20260503T12Z_MSC_CAPS_WindDir_IsbL-0600_RLatLon0.03_PT028H.grib2 2026-05-03 18:16 1.2M
20260503T12Z_MSC_CAPS_WindDir_IsbL-0650_RLatLon0.03_PT028H.grib2 2026-05-03 18:16 1.3M
20260503T12Z_MSC_CAPS_WindDir_IsbL-0700_RLatLon0.03_PT028H.grib2 2026-05-03 18:16 1.4M
20260503T12Z_MSC_CAPS_WindDir_IsbL-0750_RLatLon0.03_PT028H.grib2 2026-05-03 18:16 1.5M
20260503T12Z_MSC_CAPS_WindDir_IsbL-0800_RLatLon0.03_PT028H.grib2 2026-05-03 18:16 1.6M
20260503T12Z_MSC_CAPS_WindDir_IsbL-0850_RLatLon0.03_PT028H.grib2 2026-05-03 18:16 1.7M
20260503T12Z_MSC_CAPS_WindDir_IsbL-0875_RLatLon0.03_PT028H.grib2 2026-05-03 18:16 1.8M
20260503T12Z_MSC_CAPS_WindDir_IsbL-0900_RLatLon0.03_PT028H.grib2 2026-05-03 18:16 1.9M
20260503T12Z_MSC_CAPS_WindDir_IsbL-0925_RLatLon0.03_PT028H.grib2 2026-05-03 18:16 2.0M
20260503T12Z_MSC_CAPS_WindDir_IsbL-0950_RLatLon0.03_PT028H.grib2 2026-05-03 18:16 2.0M
20260503T12Z_MSC_CAPS_WindDir_IsbL-0970_RLatLon0.03_PT028H.grib2 2026-05-03 18:16 2.1M
20260503T12Z_MSC_CAPS_WindDir_IsbL-0985_RLatLon0.03_PT028H.grib2 2026-05-03 18:16 2.2M
20260503T12Z_MSC_CAPS_WindDir_IsbL-1000_RLatLon0.03_PT028H.grib2 2026-05-03 18:16 2.3M
20260503T12Z_MSC_CAPS_WindDir_IsbL-1015_RLatLon0.03_PT028H.grib2 2026-05-03 18:16 2.4M
20260503T12Z_MSC_CAPS_WindGust-Max_AGL-10m_RLatLon0.03_PT028H.grib2 2026-05-03 18:16 2.5M
20260503T12Z_MSC_CAPS_WindGust-Min_AGL-10m_RLatLon0.03_PT028H.grib2 2026-05-03 18:16 2.4M
20260503T12Z_MSC_CAPS_WindGust_AGL-10m_RLatLon0.03_PT028H.grib2 2026-05-03 18:16 2.5M
20260503T12Z_MSC_CAPS_WindSpeed_AGL-10m_RLatLon0.03_PT028H.grib2 2026-05-03 18:16 2.1M
20260503T12Z_MSC_CAPS_WindSpeed_AGL-120m_RLatLon0.03_PT028H.grib2 2026-05-03 18:16 1.5M
20260503T12Z_MSC_CAPS_WindSpeed_AGL-40m_RLatLon0.03_PT028H.grib2 2026-05-03 18:16 1.6M
20260503T12Z_MSC_CAPS_WindSpeed_AGL-80m_RLatLon0.03_PT028H.grib2 2026-05-03 18:16 1.5M
20260503T12Z_MSC_CAPS_WindSpeed_IsbL-0050_RLatLon0.03_PT028H.grib2 2026-05-03 18:16 942K
20260503T12Z_MSC_CAPS_WindSpeed_IsbL-0100_RLatLon0.03_PT028H.grib2 2026-05-03 18:16 1.3M
20260503T12Z_MSC_CAPS_WindSpeed_IsbL-0150_RLatLon0.03_PT028H.grib2 2026-05-03 18:16 1.1M
20260503T12Z_MSC_CAPS_WindSpeed_IsbL-0175_RLatLon0.03_PT028H.grib2 2026-05-03 18:16 1.1M
20260503T12Z_MSC_CAPS_WindSpeed_IsbL-0200_RLatLon0.03_PT028H.grib2 2026-05-03 18:16 942K
20260503T12Z_MSC_CAPS_WindSpeed_IsbL-0225_RLatLon0.03_PT028H.grib2 2026-05-03 18:16 959K
20260503T12Z_MSC_CAPS_WindSpeed_IsbL-0250_RLatLon0.03_PT028H.grib2 2026-05-03 18:16 1.0M
20260503T12Z_MSC_CAPS_WindSpeed_IsbL-0275_RLatLon0.03_PT028H.grib2 2026-05-03 18:16 1.0M
20260503T12Z_MSC_CAPS_WindSpeed_IsbL-0300_RLatLon0.03_PT028H.grib2 2026-05-03 18:16 1.0M
20260503T12Z_MSC_CAPS_WindSpeed_IsbL-0350_RLatLon0.03_PT028H.grib2 2026-05-03 18:16 1.0M
20260503T12Z_MSC_CAPS_WindSpeed_IsbL-0400_RLatLon0.03_PT028H.grib2 2026-05-03 18:16 1.0M
20260503T12Z_MSC_CAPS_WindSpeed_IsbL-0450_RLatLon0.03_PT028H.grib2 2026-05-03 18:16 1.0M
20260503T12Z_MSC_CAPS_WindSpeed_IsbL-0500_RLatLon0.03_PT028H.grib2 2026-05-03 18:16 1.0M
20260503T12Z_MSC_CAPS_WindSpeed_IsbL-0550_RLatLon0.03_PT028H.grib2 2026-05-03 18:16 1.4M
20260503T12Z_MSC_CAPS_WindSpeed_IsbL-0600_RLatLon0.03_PT028H.grib2 2026-05-03 18:16 1.4M
20260503T12Z_MSC_CAPS_WindSpeed_IsbL-0650_RLatLon0.03_PT028H.grib2 2026-05-03 18:16 1.5M
20260503T12Z_MSC_CAPS_WindSpeed_IsbL-0700_RLatLon0.03_PT028H.grib2 2026-05-03 18:16 1.5M
20260503T12Z_MSC_CAPS_WindSpeed_IsbL-0750_RLatLon0.03_PT028H.grib2 2026-05-03 18:16 1.6M
20260503T12Z_MSC_CAPS_WindSpeed_IsbL-0800_RLatLon0.03_PT028H.grib2 2026-05-03 18:16 1.6M
20260503T12Z_MSC_CAPS_WindSpeed_IsbL-0850_RLatLon0.03_PT028H.grib2 2026-05-03 18:16 1.7M
20260503T12Z_MSC_CAPS_WindSpeed_IsbL-0875_RLatLon0.03_PT028H.grib2 2026-05-03 18:16 1.8M
20260503T12Z_MSC_CAPS_WindSpeed_IsbL-0900_RLatLon0.03_PT028H.grib2 2026-05-03 18:16 1.8M
20260503T12Z_MSC_CAPS_WindSpeed_IsbL-0925_RLatLon0.03_PT028H.grib2 2026-05-03 18:16 1.9M
20260503T12Z_MSC_CAPS_WindSpeed_IsbL-0950_RLatLon0.03_PT028H.grib2 2026-05-03 18:16 1.9M
20260503T12Z_MSC_CAPS_WindSpeed_IsbL-0970_RLatLon0.03_PT028H.grib2 2026-05-03 18:16 2.0M
20260503T12Z_MSC_CAPS_WindSpeed_IsbL-0985_RLatLon0.03_PT028H.grib2 2026-05-03 18:16 2.0M
20260503T12Z_MSC_CAPS_WindSpeed_IsbL-1000_RLatLon0.03_PT028H.grib2 2026-05-03 18:16 2.1M
20260503T12Z_MSC_CAPS_WindSpeed_IsbL-1015_RLatLon0.03_PT028H.grib2 2026-05-03 18:16 2.1M
20260503T12Z_MSC_CAPS_WindU_AGL-10m_RLatLon0.03_PT028H.grib2 2026-05-03 18:16 2.0M
20260503T12Z_MSC_CAPS_WindU_AGL-120m_RLatLon0.03_PT028H.grib2 2026-05-03 18:16 1.2M
20260503T12Z_MSC_CAPS_WindU_AGL-40m_RLatLon0.03_PT028H.grib2 2026-05-03 18:16 1.2M
20260503T12Z_MSC_CAPS_WindU_AGL-80m_RLatLon0.03_PT028H.grib2 2026-05-03 18:16 1.2M
20260503T12Z_MSC_CAPS_WindU_IsbL-0050_RLatLon0.03_PT028H.grib2 2026-05-03 18:16 940K
20260503T12Z_MSC_CAPS_WindU_IsbL-0100_RLatLon0.03_PT028H.grib2 2026-05-03 18:16 810K
20260503T12Z_MSC_CAPS_WindU_IsbL-0150_RLatLon0.03_PT028H.grib2 2026-05-03 18:16 928K
20260503T12Z_MSC_CAPS_WindU_IsbL-0175_RLatLon0.03_PT028H.grib2 2026-05-03 18:16 731K
20260503T12Z_MSC_CAPS_WindU_IsbL-0200_RLatLon0.03_PT028H.grib2 2026-05-03 18:16 877K
20260503T12Z_MSC_CAPS_WindU_IsbL-0225_RLatLon0.03_PT028H.grib2 2026-05-03 18:16 896K
20260503T12Z_MSC_CAPS_WindU_IsbL-0250_RLatLon0.03_PT028H.grib2 2026-05-03 18:16 702K
20260503T12Z_MSC_CAPS_WindU_IsbL-0275_RLatLon0.03_PT028H.grib2 2026-05-03 18:16 707K
20260503T12Z_MSC_CAPS_WindU_IsbL-0300_RLatLon0.03_PT028H.grib2 2026-05-03 18:16 925K
20260503T12Z_MSC_CAPS_WindU_IsbL-0350_RLatLon0.03_PT028H.grib2 2026-05-03 18:16 725K
20260503T12Z_MSC_CAPS_WindU_IsbL-0400_RLatLon0.03_PT028H.grib2 2026-05-03 18:16 948K
20260503T12Z_MSC_CAPS_WindU_IsbL-0450_RLatLon0.03_PT028H.grib2 2026-05-03 18:16 972K
20260503T12Z_MSC_CAPS_WindU_IsbL-0500_RLatLon0.03_PT028H.grib2 2026-05-03 18:16 1.0M
20260503T12Z_MSC_CAPS_WindU_IsbL-0550_RLatLon0.03_PT028H.grib2 2026-05-03 18:16 924K
20260503T12Z_MSC_CAPS_WindU_IsbL-0600_RLatLon0.03_PT028H.grib2 2026-05-03 18:16 957K
20260503T12Z_MSC_CAPS_WindU_IsbL-0650_RLatLon0.03_PT028H.grib2 2026-05-03 18:16 1.0M
20260503T12Z_MSC_CAPS_WindU_IsbL-0700_RLatLon0.03_PT028H.grib2 2026-05-03 18:16 1.0M
20260503T12Z_MSC_CAPS_WindU_IsbL-0750_RLatLon0.03_PT028H.grib2 2026-05-03 18:16 1.1M
20260503T12Z_MSC_CAPS_WindU_IsbL-0800_RLatLon0.03_PT028H.grib2 2026-05-03 18:16 1.1M
20260503T12Z_MSC_CAPS_WindU_IsbL-0850_RLatLon0.03_PT028H.grib2 2026-05-03 18:16 1.2M
20260503T12Z_MSC_CAPS_WindU_IsbL-0875_RLatLon0.03_PT028H.grib2 2026-05-03 18:16 1.2M
20260503T12Z_MSC_CAPS_WindU_IsbL-0900_RLatLon0.03_PT028H.grib2 2026-05-03 18:16 1.3M
20260503T12Z_MSC_CAPS_WindU_IsbL-0925_RLatLon0.03_PT028H.grib2 2026-05-03 18:16 1.3M
20260503T12Z_MSC_CAPS_WindU_IsbL-0950_RLatLon0.03_PT028H.grib2 2026-05-03 18:16 1.4M
20260503T12Z_MSC_CAPS_WindU_IsbL-0970_RLatLon0.03_PT028H.grib2 2026-05-03 18:16 1.4M
20260503T12Z_MSC_CAPS_WindU_IsbL-0985_RLatLon0.03_PT028H.grib2 2026-05-03 18:16 1.8M
20260503T12Z_MSC_CAPS_WindU_IsbL-1000_RLatLon0.03_PT028H.grib2 2026-05-03 18:16 1.8M
20260503T12Z_MSC_CAPS_WindU_IsbL-1015_RLatLon0.03_PT028H.grib2 2026-05-03 18:16 2.0M
20260503T12Z_MSC_CAPS_WindV_AGL-10m_RLatLon0.03_PT028H.grib2 2026-05-03 18:16 2.0M
20260503T12Z_MSC_CAPS_WindV_AGL-120m_RLatLon0.03_PT028H.grib2 2026-05-03 18:16 1.2M
20260503T12Z_MSC_CAPS_WindV_AGL-40m_RLatLon0.03_PT028H.grib2 2026-05-03 18:16 1.2M
20260503T12Z_MSC_CAPS_WindV_AGL-80m_RLatLon0.03_PT028H.grib2 2026-05-03 18:16 1.2M
20260503T12Z_MSC_CAPS_WindV_IsbL-0050_RLatLon0.03_PT028H.grib2 2026-05-03 18:16 766K
20260503T12Z_MSC_CAPS_WindV_IsbL-0100_RLatLon0.03_PT028H.grib2 2026-05-03 18:16 1.0M
20260503T12Z_MSC_CAPS_WindV_IsbL-0150_RLatLon0.03_PT028H.grib2 2026-05-03 18:16 716K
20260503T12Z_MSC_CAPS_WindV_IsbL-0175_RLatLon0.03_PT028H.grib2 2026-05-03 18:16 847K
20260503T12Z_MSC_CAPS_WindV_IsbL-0200_RLatLon0.03_PT028H.grib2 2026-05-03 18:16 868K
20260503T12Z_MSC_CAPS_WindV_IsbL-0225_RLatLon0.03_PT028H.grib2 2026-05-03 18:16 890K
20260503T12Z_MSC_CAPS_WindV_IsbL-0250_RLatLon0.03_PT028H.grib2 2026-05-03 18:16 698K
20260503T12Z_MSC_CAPS_WindV_IsbL-0275_RLatLon0.03_PT028H.grib2 2026-05-03 18:16 708K
20260503T12Z_MSC_CAPS_WindV_IsbL-0300_RLatLon0.03_PT028H.grib2 2026-05-03 18:16 713K
20260503T12Z_MSC_CAPS_WindV_IsbL-0350_RLatLon0.03_PT028H.grib2 2026-05-03 18:16 726K
20260503T12Z_MSC_CAPS_WindV_IsbL-0400_RLatLon0.03_PT028H.grib2 2026-05-03 18:16 730K
20260503T12Z_MSC_CAPS_WindV_IsbL-0450_RLatLon0.03_PT028H.grib2 2026-05-03 18:16 972K
20260503T12Z_MSC_CAPS_WindV_IsbL-0500_RLatLon0.03_PT028H.grib2 2026-05-03 18:16 1.0M
20260503T12Z_MSC_CAPS_WindV_IsbL-0550_RLatLon0.03_PT028H.grib2 2026-05-03 18:16 1.0M
20260503T12Z_MSC_CAPS_WindV_IsbL-0600_RLatLon0.03_PT028H.grib2 2026-05-03 18:16 956K
20260503T12Z_MSC_CAPS_WindV_IsbL-0650_RLatLon0.03_PT028H.grib2 2026-05-03 18:16 1.0M
20260503T12Z_MSC_CAPS_WindV_IsbL-0700_RLatLon0.03_PT028H.grib2 2026-05-03 18:16 1.0M
20260503T12Z_MSC_CAPS_WindV_IsbL-0750_RLatLon0.03_PT028H.grib2 2026-05-03 18:16 1.1M
20260503T12Z_MSC_CAPS_WindV_IsbL-0800_RLatLon0.03_PT028H.grib2 2026-05-03 18:16 1.4M
20260503T12Z_MSC_CAPS_WindV_IsbL-0850_RLatLon0.03_PT028H.grib2 2026-05-03 18:16 1.5M
20260503T12Z_MSC_CAPS_WindV_IsbL-0875_RLatLon0.03_PT028H.grib2 2026-05-03 18:16 1.2M
20260503T12Z_MSC_CAPS_WindV_IsbL-0900_RLatLon0.03_PT028H.grib2 2026-05-03 18:16 1.3M
20260503T12Z_MSC_CAPS_WindV_IsbL-0925_RLatLon0.03_PT028H.grib2 2026-05-03 18:16 1.3M
20260503T12Z_MSC_CAPS_WindV_IsbL-0950_RLatLon0.03_PT028H.grib2 2026-05-03 18:16 1.4M
20260503T12Z_MSC_CAPS_WindV_IsbL-0970_RLatLon0.03_PT028H.grib2 2026-05-03 18:16 1.4M
20260503T12Z_MSC_CAPS_WindV_IsbL-0985_RLatLon0.03_PT028H.grib2 2026-05-03 18:16 1.8M
20260503T12Z_MSC_CAPS_WindV_IsbL-1000_RLatLon0.03_PT028H.grib2 2026-05-03 18:16 1.9M
20260503T12Z_MSC_CAPS_WindV_IsbL-1015_RLatLon0.03_PT028H.grib2 2026-05-03 18:16 1.9M